ANA577 RJBE-RJCC

Flight info

Callsign ANA577
Flight time N/A
Altitude 37000
Route MUKRI LANID PORUS TRIPY ASAGI YME Y381 GOLDO Y19 MRE Y13 SIRAO Y139 NAVER
Aircraft A21N/M-SDE2FGHIJ3J4LORVWXY/LB1

Departure

Time 2026-04-25 02:37
Airport Kobe Airport (RJBE)

Arrival

Time N/A
Airport New Chitose Airport (RJCC)
Time Latitude Longitude Altitude Speed Heading
2026-04-25 01:59 34.63615 135.22862 39 ft 0 kts 354°
2026-04-25 02:25 34.63606 135.22863 41 ft 3 kts 354°
2026-04-25 02:25 34.63586 135.22865 39 ft 3 kts 354°
2026-04-25 02:25 34.63566 135.22868 39 ft 3 kts 352°
2026-04-25 02:25 34.63546 135.22872 40 ft 3 kts 348°
2026-04-25 02:26 34.63527 135.22878 40 ft 3 kts 342°
2026-04-25 02:26 34.63508 135.22887 39 ft 3 kts 333°
2026-04-25 02:26 34.63496 135.22895 39 ft 1 kts 325°
2026-04-25 02:26 34.63495 135.22896 39 ft 2 kts 325°
2026-04-25 02:31 34.63500 135.22888 38 ft 3 kts 295°
2026-04-25 02:31 34.63491 135.22857 40 ft 5 kts 245°
2026-04-25 02:32 34.63473 135.22805 39 ft 8 kts 262°
2026-04-25 02:32 34.63467 135.22728 41 ft 10 kts 264°
2026-04-25 02:32 34.63458 135.22629 41 ft 13 kts 264°
2026-04-25 02:32 34.63447 135.22511 41 ft 15 kts 263°
2026-04-25 02:33 34.63435 135.22375 41 ft 17 kts 263°
2026-04-25 02:33 34.63424 135.22221 41 ft 19 kts 265°
2026-04-25 02:33 34.63412 135.22051 40 ft 21 kts 264°
2026-04-25 02:33 34.63398 135.21866 40 ft 23 kts 264°
2026-04-25 02:34 34.63381 135.21667 40 ft 25 kts 264°
2026-04-25 02:34 34.63365 135.21453 40 ft 26 kts 265°
2026-04-25 02:34 34.63352 135.21294 40 ft 10 kts 264°
2026-04-25 02:34 34.63348 135.21236 40 ft 8 kts 265°
2026-04-25 02:35 34.63342 135.21160 40 ft 11 kts 266°
2026-04-25 02:35 34.63325 135.21065 41 ft 13 kts 226°
2026-04-25 02:35 34.63267 135.21037 41 ft 8 kts 183°
2026-04-25 02:35 34.63202 135.21044 41 ft 11 kts 161°
2026-04-25 02:36 34.63168 135.21101 40 ft 9 kts 93°
2026-04-25 02:36 34.63172 135.21156 40 ft 0 kts 84°
2026-04-25 02:36 34.63172 135.21157 40 ft 1 kts 84°
2026-04-25 02:36 34.63192 135.21396 37 ft 70 kts 84°
2026-04-25 02:37 34.63261 135.22298 41 ft 140 kts 84°
2026-04-25 02:37 34.63367 135.23591 428 ft 155 kts 85°
2026-04-25 02:37 34.63383 135.24906 1067 ft 160 kts 107°
2026-04-25 02:37 34.62691 135.25952 1714 ft 166 kts 148°
2026-04-25 02:38 34.61550 135.26169 2426 ft 173 kts 190°
2026-04-25 02:38 34.60548 135.25376 3140 ft 180 kts 232°
2026-04-25 02:38 34.60100 135.23889 3702 ft 197 kts 257°
2026-04-25 02:38 34.59790 135.22212 4311 ft 211 kts 255°
2026-04-25 02:39 34.59423 135.20425 4831 ft 224 kts 254°
2026-04-25 02:39 34.59028 135.18589 4991 ft 225 kts 254°
2026-04-25 02:39 34.58626 135.16752 5013 ft 225 kts 254°
2026-04-25 02:39 34.58212 135.14921 5004 ft 225 kts 252°
2026-04-25 02:40 34.57764 135.13101 4924 ft 225 kts 252°
2026-04-25 02:40 34.57315 135.11289 4710 ft 224 kts 252°
2026-04-25 02:40 34.56864 135.09483 4473 ft 223 kts 252°
2026-04-25 02:40 34.56416 135.07688 4222 ft 222 kts 252°
2026-04-25 02:41 34.55970 135.05898 3969 ft 221 kts 252°
2026-04-25 02:41 34.55524 135.04116 3718 ft 220 kts 252°
2026-04-25 02:41 34.55080 135.02342 3467 ft 221 kts 252°
2026-04-25 02:41 34.54649 135.00578 3213 ft 220 kts 252°
2026-04-25 02:42 34.54210 134.98807 3004 ft 218 kts 252°
2026-04-25 02:42 34.53771 134.97059 2960 ft 216 kts 252°
2026-04-25 02:42 34.53358 134.95314 2960 ft 216 kts 261°
2026-04-25 02:42 34.53515 134.93519 2974 ft 217 kts 294°
2026-04-25 02:43 34.54423 134.92093 2983 ft 215 kts 326°
2026-04-25 02:43 34.55782 134.91416 2996 ft 213 kts 350°
2026-04-25 02:43 34.57240 134.91432 2986 ft 210 kts 19°
2026-04-25 02:43 34.58463 134.92321 2991 ft 205 kts 48°
2026-04-25 02:44 34.59332 134.93681 3001 ft 203 kts 56°
2026-04-25 02:44 34.60153 134.95079 2997 ft 203 kts 56°
2026-04-25 02:44 34.60976 134.96474 2992 ft 203 kts 60°
2026-04-25 02:44 34.61456 134.98061 2992 ft 201 kts 84°
2026-04-25 02:45 34.61560 134.99734 2987 ft 192 kts 87°
2026-04-25 02:45 34.61639 135.01330 2982 ft 182 kts 87°
2026-04-25 02:45 34.61730 135.02778 2942 ft 164 kts 86°
2026-04-25 02:45 34.61830 135.04113 2764 ft 155 kts 85°
2026-04-25 02:46 34.61930 135.05412 2563 ft 155 kts 85°
2026-04-25 02:46 34.62033 135.06709 2359 ft 153 kts 85°
2026-04-25 02:46 34.62135 135.08008 2155 ft 157 kts 85°
2026-04-25 02:46 34.62237 135.09302 1941 ft 151 kts 86°
2026-04-25 02:47 34.62333 135.10524 1750 ft 142 kts 85°
2026-04-25 02:47 34.62424 135.11681 1580 ft 130 kts 85°
2026-04-25 02:47 34.62508 135.12741 1405 ft 124 kts 85°
2026-04-25 02:47 34.62592 135.13803 1234 ft 126 kts 84°
2026-04-25 02:48 34.62675 135.14863 1070 ft 124 kts 85°
2026-04-25 02:48 34.62758 135.15925 894 ft 129 kts 84°
2026-04-25 02:48 34.62847 135.16998 769 ft 126 kts 85°
2026-04-25 02:48 34.62924 135.18058 544 ft 128 kts 87°
2026-04-25 02:49 34.63007 135.19132 423 ft 126 kts 84°
2026-04-25 02:49 34.63098 135.20184 241 ft 126 kts 87°
2026-04-25 02:49 34.63182 135.21260 70 ft 128 kts 86°
2026-04-25 02:49 34.63266 135.22288 40 ft 108 kts 84°
2026-04-25 02:50 34.63317 135.22977 39 ft 59 kts 85°
2026-04-25 02:50 34.63340 135.23288 37 ft 26 kts 85°
2026-04-25 02:50 34.63356 135.23514 36 ft 28 kts 85°
2026-04-25 02:50 34.63375 135.23665 37 ft 10 kts 58°
2026-04-25 02:51 34.63434 135.23720 39 ft 10 kts
2026-04-25 02:51 34.63513 135.23706 40 ft 13 kts 322°
2026-04-25 02:51 34.63534 135.23616 40 ft 12 kts 264°
2026-04-25 02:51 34.63524 135.23501 40 ft 15 kts 264°
2026-04-25 02:52 34.63514 135.23368 40 ft 17 kts 264°
2026-04-25 02:52 34.63502 135.23216 40 ft 19 kts 264°
2026-04-25 02:52 34.63491 135.23073 40 ft 14 kts 264°
2026-04-25 02:52 34.63481 135.22953 40 ft 9 kts 264°
2026-04-25 02:53 34.63480 135.22892 41 ft 7 kts 290°
2026-04-25 02:53 34.63529 135.22872 41 ft 7 kts 355°
2026-04-25 02:53 34.63583 135.22866 41 ft 6 kts 354°
2026-04-25 02:53 34.63607 135.22863 40 ft 0 kts 354°
2026-04-25 02:54 34.63609 135.22863 41 ft 0 kts 354°